| time (UTC) | temp C | wind direction | speed KPH | gust KPH | rain 1hr cm | rain 24hr cm | rain mn cm | humidity % | barometer mb |
| 20260510075015 | 8 | 113 | 4.8 | 9.7 | 0.00 | 0.00 | 0.00 | 94 | 1012.0 |
| 20260510070006 | 9 | 123 | 6.4 | 8.0 | 0.00 | 0.00 | 0.00 | 88 | 1011.3 |
| 20260510064503 | 10 | 130 | 6.4 | 9.7 | 0.00 | 0.00 | 0.00 | 84 | 1011.3 |
| 20260510063503 | 10 | 112 | 6.4 | 11.3 | 0.00 | 0.00 | 0.00 | 82 | 1011.3 |
| 20260510060457 | 10 | 68 | 8.0 | 16.1 | 0.00 | 0.00 | 0.00 | 81 | 1011.0 |
| 20260510055956 | 10 | 77 | 9.7 | 17.7 | 0.00 | 0.00 | 0.00 | 81 | 1011.0 |
| 20260510055459 | 10 | 6 | 3.2 | 17.7 | 0.00 | 0.00 | 0.00 | 82 | 1011.0 |
| 20260510053955 | 11 | 347 | 4.8 | 20.9 | 0.00 | 0.00 | 0.00 | 84 | 1010.7 |
| 20260510040435 | 15 | 314 | 8.0 | 9.7 | 0.00 | 0.00 | 0.00 | 77 | 1008.5 |
| 20260510033930 | 15 | 344 | 3.2 | 9.7 | 0.00 | 0.00 | 0.00 | 79 | 1008.2 |
| 20260510033431 | 15 | 302 | 3.2 | 9.7 | 0.00 | 0.00 | 0.00 | 79 | 1008.2 |
| 20260510031413 | 15 | 329 | 4.8 | 9.7 | 0.00 | 0.00 | 0.00 | 79 | 1007.8 |
| 20260510025911 | 15 | 305 | 3.2 | 9.7 | 0.00 | 0.00 | 0.00 | 78 | 1008.2 |
| 20260510021915 | 15 | 322 | 8.0 | 14.5 | 0.00 | 0.00 | 0.00 | 74 | 1007.8 |
| 20260510021419 | 15 | 279 | 9.7 | 14.5 | 0.00 | 0.00 | 0.00 | 75 | 1007.8 |
| 20260510020915 | 15 | 282 | 9.7 | 14.5 | 0.00 | 0.00 | 0.00 | 75 | 1007.8 |
| 20260510013911 | 15 | 303 | 6.4 | 14.5 | 0.00 | 0.00 | 0.00 | 81 | 1007.8 |
| 20260510011406 | 15 | 309 | 6.4 | 16.1 | 0.00 | 0.00 | 0.00 | 82 | 1007.2 |
| 20260510004902 | 15 | 296 | 9.7 | 14.5 | 0.00 | 0.00 | 0.00 | 83 | 1007.2 |
| 20260509225841 | 12 | 319 | 9.7 | 27.4 | 0.00 | 0.00 | 0.00 | 94 | 1007.5 |
| 20260509224841 | 12 | 299 | 12.9 | 35.4 | 0.00 | 0.00 | 0.00 | 93 | 1007.8 |
| 20260509223628 | 12 | 309 | 16.1 | 48.3 | 0.00 | 0.00 | 0.00 | 91 | 1027.5 |
| 20260509222626 | 15 | 282 | 9.7 | 54.7 | 0.00 | 0.00 | 0.00 | 70 | 1030.3 |